H-2A DEB

基本信息
目录编号:
28237
目录名称:
H-2A DEB
国际标识:
2002-003D
轨道中心:
EARTH
物体状态:
在轨
发射日期:
2002-02-04 UTC
轨道信息
数据来源: 国际轨道数据
星历时间: 2026-07-13T14:29:20+0800
半长轴: 23102.592km
偏心率: 0.7095605
轨道倾角: 28.226°
近地点辐角: 88.116°
升交点赤经: 165.861°
平近点角: 344.558°
近地点: 331.768km
远地点: 33117.142km
周期: 582.439分钟
每日圈数: 2.47236
详细信息
发射场:
TNSTA
轨道高度:
LEO
数据来源:
AOE Integration Group
参考系:
TEME
时间系统:
UTC
历元类型:
SGP4
2D轨道图
3D轨道图
轨道高度分析图
轨道倾角分析图
轨道综合分析图
查看轨道综合分析图